TimeEST,TemperatureF,Dew PointF,Humidity,Sea Level PressureIn,VisibilityMPH,Wind Direction,Wind SpeedMPH,Gust SpeedMPH,PrecipitationIn,Events,Conditions,WindDirDegrees,DateUTC
12:51 AM,30.0,28.0,92,29.93,10.0,NNE,9.2,-,N/A,,Overcast,20,2013-11-03 04:51:00
1:16 AM,30.2,26.6,86,29.90,10.0,North,6.9,-,N/A,,Overcast,10,2013-11-03 05:16:00
1:51 AM,28.9,25.0,85,29.96,10.0,NNE,9.2,-,N/A,,Overcast,20,2013-11-03 05:51:00
1:59 AM,28.4,24.8,86,29.92,10.0,NNE,10.4,-,N/A,,Overcast,30,2013-11-03 05:59:00
1:51 AM,28.0,24.1,85,29.99,10.0,NNE,11.5,-,N/A,,Overcast,20,2013-11-03 06:51:00
2:51 AM,26.1,21.0,81,30.01,10.0,NNE,10.4,-,N/A,,Overcast,20,2013-11-03 07:51:00
3:51 AM,25.0,19.0,78,30.05,10.0,NNE,10.4,-,N/A,,Overcast,30,2013-11-03 08:51:00
4:26 AM,24.8,19.4,80,30.02,10.0,NNE,6.9,-,N/A,,Overcast,20,2013-11-03 09:26:00
4:51 AM,24.1,18.0,77,30.10,10.0,NNE,6.9,-,N/A,,Overcast,30,2013-11-03 09:51:00
5:51 AM,21.9,19.0,89,30.13,10.0,North,4.6,-,N/A,,Clear,10,2013-11-03 10:51:00
6:51 AM,21.9,18.0,85,30.16,10.0,North,4.6,-,N/A,,Clear,360,2013-11-03 11:51:00
7:51 AM,23.0,19.0,85,30.21,10.0,Calm,Calm,-,N/A,,Clear,0,2013-11-03 12:51:00
8:51 AM,26.1,18.0,71,30.22,10.0,NE,10.4,-,N/A,,Clear,40,2013-11-03 13:51:00
9:51 AM,26.1,18.0,71,30.24,10.0,NNE,10.4,-,N/A,,Scattered Clouds,20,2013-11-03 14:51:00
10:00 AM,26.6,17.6,69,30.18,10.0,North,4.6,-,N/A,,Mostly Cloudy,350,2013-11-03 15:00:00
10:29 AM,26.6,17.6,69,30.19,10.0,NNE,6.9,-,N/A,,Scattered Clouds,20,2013-11-03 15:29:00
10:51 AM,28.0,17.1,63,30.26,10.0,NE,10.4,-,N/A,,Mostly Cloudy,40,2013-11-03 15:51:00
11:20 AM,28.4,17.6,64,30.19,10.0,NNE,8.1,-,N/A,,Scattered Clouds,20,2013-11-03 16:20:00
11:51 AM,27.0,16.0,63,30.26,10.0,North,6.9,-,N/A,,Mostly Cloudy,10,2013-11-03 16:51:00
11:58 AM,28.4,17.6,64,30.20,10.0,NNE,8.1,-,N/A,,Mostly Cloudy,30,2013-11-03 16:58:00
12:26 PM,28.4,17.6,64,30.20,10.0,North,4.6,-,N/A,,Mostly Cloudy,350,2013-11-03 17:26:00
12:51 PM,30.0,18.0,61,30.27,10.0,Variable,4.6,-,N/A,,Mostly Cloudy,0,2013-11-03 17:51:00
1:51 PM,30.0,18.0,61,30.30,10.0,NW,8.1,-,N/A,,Mostly Cloudy,310,2013-11-03 18:51:00
2:51 PM,30.9,15.1,52,30.32,10.0,Variable,3.5,-,0.00,,Mostly Cloudy,0,2013-11-03 19:51:00
3:51 PM,28.9,14.0,54,30.34,10.0,North,5.8,-,N/A,,Clear,10,2013-11-03 20:51:00
4:51 PM,27.0,14.0,58,30.36,10.0,North,3.5,-,N/A,,Clear,360,2013-11-03 21:51:00
5:51 PM,21.9,17.1,82,30.40,10.0,Calm,Calm,-,N/A,,Clear,0,2013-11-03 22:51:00
6:51 PM,19.0,16.0,88,30.43,10.0,Calm,Calm,-,N/A,,Clear,0,2013-11-03 23:51:00
7:51 PM,17.1,15.1,92,30.45,10.0,Calm,Calm,-,N/A,,Partly Cloudy,0,2013-11-04 00:51:00
8:51 PM,16.0,14.0,92,30.47,10.0,Calm,Calm,-,N/A,,Scattered Clouds,0,2013-11-04 01:51:00
9:51 PM,14.0,12.0,92,30.49,10.0,Calm,Calm,-,N/A,,Clear,0,2013-11-04 02:51:00
10:51 PM,14.0,10.9,88,30.49,10.0,Calm,Calm,-,N/A,,Clear,0,2013-11-04 03:51:00